Weather History for Aberdeen, SD

Change the Weather History Date:

Monday, March 11, 2013

  Actual Average Record
Temperature  
Mean Temperature 18 °F 28 °F  
Max Temperature 33 °F 37 °F 64 °F (1934)
Min Temperature 2 °F 18 °F -27 °F (1948)
Degree Days  
Heating Degree Days 47 37  
Month to date heating degree days 497 436  
Since 1 July heating degree days 6911 6899  
Cooling Degree Days 0 0  
Month to date cooling degree days 0 0  
Year to date cooling degree days 0 0  
Moisture  
Dew Point 9 °F    
Average Humidity 80    
Maximum Humidity 91    
Minimum Humidity 68    
Precipitation  
Precipitation 0.00 in 0.03 in 3.00 in (1897)
Month to date precipitation 0.20 0.33  
Year to date precipitation 2.04 1.35  
Snow  
Snow 0.00 in - - ()
Month to date snowfall 0.9  
Since 1 July snowfall 40.0  
Snow Depth 6.00 in    
Sea Level Pressure  
Sea Level Pressure 29.99 in    
Wind  
Wind Speed 6 mph (WNW)    
Max Wind Speed 21 mph    
Max Gust Speed 36 mph    
Visibility 8 miles    
Events      
T = Trace of Precipitation, MM = Missing Value Source: NWS Daily Summary

Daily Weather History Graph

Daily Weather History Graph

Search for Another Location

Airport:

Trip Planner

Search our weather history database for the weather conditions in past years. The results will help you decide how hot, cold, wet, or windy it might be!

Date:

Astronomy

Mar. 11, 2013 Rise Set
Actual Time 7:53 AM CDT 7:34 PM CDT
Civil Twilight 7:23 AM CDT 8:04 PM CDT
Nautical Twilight 6:49 AM CDT 8:38 PM CDT
Astronomical Twilight 6:14 AM CDT 9:13 PM CDT
Moon 7:26 AM CDT (3/11) 7:51 PM CDT (3/11)
Length of Visible Light 12h 40m
Length of Day
11h 41m
Waning Crescent, 0% of the Moon is Illuminated
Mar 11
Waning Crescent
Mar 11
New
Mar 19
First Quarter
Mar 27
Full
Apr 2
Last Quarter

Hourly Weather History & Observations

Time (CDT) Temp. Windchill Dew Point Humidity Pressure Visibility Wind Dir Wind Speed Gust Speed Precip Events Conditions
12:53 AM 9.0 °F -5.1 °F 3.9 °F 80% 30.15 in 10.0 mi NNW 10.4 mph - N/A   Clear
1:53 AM 8.1 °F -4.3 °F 3.9 °F 83% 30.12 in 10.0 mi North 8.1 mph - N/A   Clear
2:53 AM 7.0 °F -6.6 °F 3.0 °F 84% 30.11 in 10.0 mi NNW 9.2 mph - N/A   Clear
3:53 AM 5.0 °F - 1.0 °F 84% 30.08 in 10.0 mi Calm Calm - N/A   Clear
4:51 AM 1.4 °F -11.3 °F -0.4 °F 92% 29.99 in 2.5 mi NW 6.9 mph - N/A   Scattered Clouds
4:52 AM 3.2 °F -9.1 °F -0.4 °F 85% 29.99 in 2.5 mi NW 6.9 mph - N/A   Scattered Clouds
4:55 AM 3.2 °F -9.1 °F -0.4 °F 85% 29.99 in 1.8 mi NW 6.9 mph - N/A   Mostly Cloudy
5:14 AM 5.0 °F -4.1 °F 1.4 °F 85% 29.98 in 3.0 mi North 4.6 mph - N/A   Mostly Cloudy
5:27 AM 3.2 °F -4.2 °F 1.4 °F 92% 29.97 in 10.0 mi NNW 3.5 mph - N/A   Scattered Clouds
5:50 AM 5.0 °F -5.6 °F 1.4 °F 85% 29.97 in 2.0 mi NW 5.8 mph - N/A   Mostly Cloudy
5:53 AM 3.9 °F -8.2 °F -0.0 °F 84% 30.05 in 2.0 mi NW 6.9 mph - N/A   Mostly Cloudy
6:12 AM 5.0 °F -4.1 °F 1.4 °F 85% 29.96 in 3.0 mi NW 4.6 mph - N/A   Overcast
6:39 AM 3.2 °F -6.2 °F 1.4 °F 92% 29.96 in 10.0 mi NW 4.6 mph - N/A   Scattered Clouds
6:53 AM 5.0 °F -2.1 °F 1.0 °F 84% 30.04 in 10.0 mi West 3.5 mph - N/A   Clear
7:53 AM 6.1 °F - 1.9 °F 83% 30.03 in 10.0 mi Calm Calm - N/A   Clear
8:53 AM 9.0 °F 2.4 °F 3.9 °F 80% 30.01 in 10.0 mi WSW 3.5 mph - N/A   Overcast
9:53 AM 10.9 °F 4.7 °F 7.0 °F 84% 29.99 in - SSE 3.5 mph - N/A   Overcast
10:53 AM 12.9 °F - 8.1 °F 81% 29.97 in 10.0 mi North - - N/A   Overcast
11:53 AM 15.1 °F - 8.1 °F 74% 29.96 in 10.0 mi North - - N/A   Unknown
12:53 PM 17.1 °F 8.7 °F 10.0 °F 74% 29.95 in 10.0 mi South 5.8 mph - N/A   Overcast
1:53 PM 19.0 °F 10.0 °F 12.0 °F 74% 29.94 in 10.0 mi South 6.9 mph - N/A   Overcast
2:53 PM 21.9 °F 14.5 °F 12.9 °F 68% 29.92 in 10.0 mi South 5.8 mph - N/A   Mostly Cloudy
3:53 PM 24.1 °F 16.0 °F 15.1 °F 69% 29.92 in 10.0 mi SSW 6.9 mph - N/A   Mostly Cloudy
4:53 PM 26.1 °F 17.6 °F 17.1 °F 69% 29.92 in 10.0 mi WSW 8.1 mph - N/A   Partly Cloudy
5:07 PM 26.6 °F 19.1 °F 17.6 °F 69% 29.85 in 10.0 mi SW 6.9 mph - N/A   Mostly Cloudy
5:53 PM 28.0 °F 18.6 °F 19.9 °F 72% 29.93 in 10.0 mi WNW 10.4 mph - N/A   Overcast
6:37 PM 32.0 °F 21.6 °F 24.8 °F 75% 29.86 in 10.0 mi North 15.0 mph - N/A   Mostly Cloudy
6:53 PM 32.0 °F 21.6 °F 24.1 °F 73% 29.93 in 10.0 mi NNW 15.0 mph 32.2 mph N/A   Scattered Clouds
7:53 PM 27.0 °F 19.5 °F 21.0 °F 78% 29.94 in 10.0 mi NW 6.9 mph - N/A   Clear
8:53 PM 21.9 °F 13.4 °F 18.0 °F 85% 29.96 in 10.0 mi West 6.9 mph - N/A   Clear
9:53 PM 17.1 °F 8.7 °F 14.0 °F 88% 29.98 in 9.0 mi SW 5.8 mph - N/A   Clear
10:53 PM 18.0 °F - 12.9 °F 81% 29.99 in 10.0 mi Calm Calm - N/A   Mostly Cloudy
11:53 PM 19.9 °F 12.1 °F 17.1 °F 89% 29.98 in 10.0 mi WNW 5.8 mph - N/A   Overcast